User: anonymous   Login
Location: Caltech
(34.1382°N, 118.1253°W)
Time: 11:49:11
(UTC-07:00)
Language:

ALOS - Orbit

View from above orbital plane
View from above orbital plane
View from above satellite
View from above satellite

Ground track
Ground track

The orbit data is extracted from the following two-line orbital elements,

1 28931U 06002A   16179.54891686  .00000241  00000-0  56659-4 0  9994
2 28931  97.8838 217.8664 0001883  55.3516 304.7863 14.62205859555634
Epoch (UTC): 27 June 2016 13:10:26
Eccentricity: 0.0001883
inclination: 97.8838°
perigee height: 685 km
apogee height: 687 km
right ascension of ascending node: 217.8664°
argument of perigee: 55.3516°
revolutions per day: 14.62205859
mean anomaly at epoch: 304.7863°
orbit number at epoch: 55563

The dashed part of the orbit path shows where the satellite is in the earth's shadow,  

DLR